Location: Paddlesworth
(51.1000°N, 1.1333°E)
Time: 08:41:31
(UTC+00:00)

SJ 16-02 - Pass Details

Date: 11 May 2021
Orbit: 606 x 616 km, 75.0° (Epoch: 15 June)

Event Time Altitude Azimuth Distance (km) Brightness Sun altitude
Exits shadow 22:56:21 - 241° (WSW) 2,776 4.6 -19.7°
Reaches altitude 10° 22:58:42 10° 255° (WSW) 1,981 3.9 -19.8°
Maximum altitude 23:02:14 23° 308° (NW) 1,333 3.6 -19.9°
Drops below altitude 10° 23:05:47 10° 1° (N) 1,992 5.1 -20.0°
Sets 23:08:27 0° 16° (NNE) 2,901 5.9 -20.1°
